Weather in Villenave-d Ornon

France     44°46′16″N   0°34′39″E
temp.,
°C
wind,
m/s
gust,
m/s
humid.,
%
clouds,
%
prec.,
mm/h
press.,
hPa
HPBL,
m
24 may, tue
tue2423:00+15wsw61077100 0.1 10131002
02:00+13wsw38814 0.2 1013421
05:00+11sw36946 0.5 1013141
08:00+13wsw2686100 0.6 1013224
11:00+17w3559100 0.1 10131306
14:00+20w4540100 0.2 10132286
17:00+17w6652100 0.0 10141221
20:00+17wnw4552100 0.0 10141069
25 may, wed
wed2523:00+13wnw247414 0.0 1017148
02:00+11wnw23825 0.0 101776
05:00+11nnw22875 0.0 101849
08:00+12n11792 0.0 1020126
11:00+18nnw3455100 0.1 10211561
14:00+21nw3442100 0.1 10212260
17:00+21nw4439100 0.0 10212143
20:00+18nw56523 0.0 10231054
26 may, thu
thu2623:00+14nw36741 0.0 1026276
02:00+12wnw23840 0.0 102667
05:00+12wnw119032 0.0 102613
08:00+14sse118553 0.0 1027113
11:00+17nw2270100 0.0 1027555
14:00+22n345037 0.0 10261486
17:00+24n444420 0.0 10251762
20:00+21n56590 0.0 1025825
27 may, fri
fri2723:00+16nnw48790 0.0 1027276
02:00+14nnw38890 0.0 1026239
05:00+13nnw25921 0.0 1025139
08:00+15n24840 0.0 1026175
11:00+22n34582 0.0 1026886
14:00+26n44430 0.0 10241831
17:00+27n54395 0.0 10231900
20:00+24n57475 0.0 1022989
28 may, sat
sat2823:00+17n36580 0.0 1024158
02:00+15nne38760 0.0 1023175
05:00+14nne26910 0.0 1022154
08:00+16nne38800 0.0 1022274
11:00+22ne56460 0.0 1021913
14:00+26ne56290 0.0 10191490
17:00+28ne56290 0.0 10171760
20:00+24nne58370 0.0 1017864